Maastricht, Netherlands

11:55 AM CET on February 07, 2016 (GMT +0100)
Maastricht-Aachen

Weather History for EHBK - April, 2013

Change the Weather History Date:

Monday, April 29, 2013

  Actual Average Record
Temperature  
Mean Temperature 46 °F -  
Max Temperature 55 °F 63 °F 73 °F (2007)
Min Temperature 38 °F 46 °F 36 °F (2015)
Degree Days  
Heating Degree Days 18    
Moisture  
Dew Point 36 °F    
Average Humidity 62    
Maximum Humidity 93    
Minimum Humidity 33    
Precipitation  
Precipitation 0.00 in 0.08 in - ()
Sea Level Pressure  
Sea Level Pressure 30.04 in    
Wind  
Wind Speed 10 mph ()    
Max Wind Speed 20 mph    
Max Gust Speed -    
Visibility 7.4 miles    
Events      
Averages and records for this station are not official NWS values.
T = Trace of Precipitation, MM = Missing Value Source: Averaged Metar Reports

Daily Weather History Graph

Daily Weather History Graph

Search for Another Location

Airport or City:

Trip Planner

Search our weather history database for the weather conditions in past years. The results will help you decide how hot, cold, wet, or windy it might be!

Date:

Astronomy

Apr. 29, 2013 Rise Set
Actual Time 6:14 AM CEST 8:55 PM CEST
Civil Twilight 5:37 AM CEST 9:32 PM CEST
Nautical Twilight 4:49 AM CEST 10:20 PM CEST
Astronomical Twilight 3:52 AM CEST 11:18 PM CEST
Moon 12:20 AM CEST (4/29) 9:05 AM CEST (4/29)
Length of Visible Light 15h 55m
Length of Day
14h 41m
Waning Gibbous, 82% of the Moon is Illuminated
Apr 29
Waning Gibbous
May 2
Last Quarter
May 10
New
May 18
First Quarter
May 25
Full

Hourly Weather History & Observations

Time (CEST) Temp. Windchill Dew Point Humidity Pressure Visibility Wind Dir Wind Speed Gust Speed Precip Events Conditions
12:25 AM 46.4 °F 41.5 °F 39.2 °F 76% 29.98 in 6.2 mi South 10.4 mph - N/A   Unknown
12:55 AM 44.6 °F 39.2 °F 39.2 °F 81% 29.98 in 6.2 mi SSW 10.4 mph - N/A   Unknown
1:25 AM 44.6 °F 40.2 °F 39.2 °F 81% 29.98 in 6.2 mi SSW 8.1 mph - N/A   Unknown
1:55 AM 44.6 °F 39.2 °F 39.2 °F 81% 29.98 in 6.2 mi SSW 10.4 mph - N/A   Scattered Clouds
2:00 AM 45 °F - 39 °F 74% 30.01 in 11 mi SSW 8.9 mph - -   Partly Cloudy
2:25 AM 46.4 °F 41.9 °F 39.2 °F 76% 29.98 in 6.2 mi SSW 9.2 mph - N/A   Overcast
2:55 AM 44.6 °F 38.8 °F 39.2 °F 81% 29.98 in 6.2 mi SSW 11.5 mph - N/A   Unknown
3:25 AM 44.6 °F 38.4 °F 39.2 °F 81% 29.98 in 6.2 mi SW 12.7 mph - N/A   Unknown
3:55 AM 44.6 °F 38.8 °F 39.2 °F 81% 29.98 in 6.2 mi SW 11.5 mph - N/A   Unknown
4:25 AM 42.8 °F 36.2 °F 39.2 °F 87% 29.98 in 6.2 mi SW 12.7 mph - N/A   Unknown
4:55 AM 42.8 °F 35.8 °F 37.4 °F 81% 29.95 in 6.2 mi SW 13.8 mph - N/A   Unknown
5:00 AM 42 °F - 38 °F 79% 29.99 in 7 mi SW 11.2 mph - -  
5:25 AM 41.0 °F 34.3 °F 37.4 °F 87% 29.95 in 6.2 mi SSW 11.5 mph - N/A   Unknown
5:55 AM 41.0 °F 34.3 °F 37.4 °F 87% 29.95 in 6.2 mi SSW 11.5 mph - N/A   Unknown
6:25 AM 39.2 °F 32.5 °F 37.4 °F 93% 29.98 in 5.0 mi SSW 10.4 mph - N/A   Unknown
6:55 AM 39.2 °F 33.0 °F 35.6 °F 87% 29.98 in 6.2 mi SSW 9.2 mph - N/A   Unknown
7:25 AM 41.0 °F 34.3 °F 33.8 °F 76% 29.98 in 6.2 mi SSW 11.5 mph - N/A   Unknown
7:55 AM 42.8 °F 35.8 °F 32.0 °F 66% 29.98 in 6.2 mi SW 13.8 mph - N/A   Unknown
8:00 AM 44 °F - 31 °F 47% 29.99 in 18 mi SW 13.4 mph - -   Partly Cloudy
8:25 AM 44.6 °F 38.1 °F 30.2 °F 57% 29.98 in 6.2 mi SW 13.8 mph - N/A   Unknown
8:55 AM 46.4 °F 39.8 °F 30.2 °F 53% 29.98 in 6.2 mi SW 16.1 mph - N/A   Unknown
9:25 AM 48.2 °F - 30.2 °F 50% 29.98 in 6.2 mi SW 17.3 mph - N/A   Unknown
9:55 AM 48.2 °F - 32.0 °F 54% 30.01 in 6.2 mi SW 17.3 mph - N/A   Unknown
10:25 AM 48.2 °F - 32.0 °F 54% 30.01 in 6.2 mi SW 17.3 mph - N/A   Unknown
10:55 AM 50.0 °F - 30.2 °F 47% 30.01 in 6.2 mi SW 18.4 mph - N/A   Overcast
11:00 AM 50 °F - 29 °F 33% 30.04 in 22 mi SW 17.9 mph - -   Overcast
11:25 AM 50.0 °F - 32.0 °F 50% 30.01 in 6.2 mi SW 19.6 mph - N/A   Overcast
11:55 AM 50.0 °F - 32.0 °F 50% 30.04 in 6.2 mi SW 18.4 mph - N/A   Overcast
12:25 PM 51.8 °F - 30.2 °F 44% 30.04 in 6.2 mi WSW 16.1 mph - N/A   Overcast
12:55 PM 51.8 °F - 33.8 °F 50% 30.04 in 6.2 mi SW 18.4 mph - N/A   Mostly Cloudy
1:25 PM 53.6 °F - 32.0 °F 44% 30.04 in 6.2 mi West 12.7 mph - N/A   Mostly Cloudy
1:55 PM 53.6 °F - 35.6 °F 51% 30.04 in 6.2 mi WSW 13.8 mph - N/A   Mostly Cloudy
2:00 PM 54 °F - 36 °F 38% 30.06 in 19 mi WSW 11.2 mph - -   Partly Cloudy
2:25 PM 53.6 °F - 37.4 °F 54% 30.04 in 6.2 mi West 11.5 mph - N/A   Mostly Cloudy
2:55 PM 55.4 °F - 39.2 °F 54% 30.04 in 6.2 mi WSW 13.8 mph - N/A   Mostly Cloudy
3:25 PM 53.6 °F - 39.2 °F 58% 30.06 in 6.2 mi WSW 13.8 mph - N/A   Mostly Cloudy
3:55 PM 55.4 °F - 37.4 °F 51% 30.06 in 6.2 mi WSW 12.7 mph - N/A   Partly Cloudy
4:25 PM 53.6 °F - 37.4 °F 54% 30.06 in 6.2 mi WSW 11.5 mph - N/A   Partly Cloudy
4:55 PM 51.8 °F - 39.2 °F 62% 30.06 in 6.2 mi NW 11.5 mph - N/A   Mostly Cloudy
5:00 PM 51 °F - 41 °F 58% 30.10 in 17 mi NW 11.2 mph - -   Overcast
5:25 PM 51.8 °F - 39.2 °F 62% 30.06 in 6.2 mi NW 8.1 mph - N/A   Overcast
5:55 PM 51.8 °F - 39.2 °F 62% 30.09 in 6.2 mi WNW 8.1 mph - N/A   Unknown
6:25 PM 53.6 °F - 39.2 °F 58% 30.09 in 6.2 mi West 5.8 mph - N/A   Unknown
6:55 PM 53.6 °F - 37.4 °F 54% 30.09 in 6.2 mi West 5.8 mph - N/A   Scattered Clouds
7:25 PM 53.6 °F - 37.4 °F 54% 30.09 in 6.2 mi WNW 4.6 mph - N/A   Unknown
7:55 PM 53.6 °F - 37.4 °F 54% 30.09 in 6.2 mi WNW 4.6 mph - N/A   Unknown
8:00 PM 53 °F - 36 °F 42% 30.12 in 19 mi West 4.5 mph - -   Partly Cloudy
8:25 PM 51.8 °F - 37.4 °F 58% 30.09 in 6.2 mi WNW 3.5 mph - N/A   Unknown
8:55 PM 50.0 °F - 37.4 °F 62% 30.12 in 6.2 mi Variable 2.3 mph - N/A   Unknown
9:25 PM 50.0 °F - 35.6 °F 58% 30.12 in 6.2 mi NW 3.5 mph - N/A   Unknown
9:55 PM 48.2 °F - 35.6 °F 62% 30.12 in 6.2 mi NNW 3.5 mph - N/A   Unknown
10:25 PM 48.2 °F - 37.4 °F 66% 30.12 in 6.2 mi North 4.6 mph - N/A   Unknown
10:55 PM 46.4 °F 45.2 °F 35.6 °F 66% 30.15 in 6.2 mi North 3.5 mph - N/A   Unknown
11:00 PM 47 °F - 35 °F 51% 30.17 in 18 mi North 4.5 mph - -   Mostly Cloudy
11:25 PM 44.6 °F - 33.8 °F 66% 30.15 in 6.2 mi Variable 2.3 mph - N/A   Unknown
11:55 PM 46.4 °F 45.2 °F 32.0 °F 57% 30.15 in 6.2 mi NNE 3.5 mph - N/A   Unknown